Погода в Печки

Чехия     50°05′25″N   15°01′48″E
темп.,
°C
ветер,
м/с
пор.,
м/с
влажн.,
%
обл.,
%
осадки,
мм/ч
давл.,
гПа
погр.,
м
10 мая, пн
пн1023:00+13юв6147499 0.0 1011475
02:00+12юв5117960 0.0 1010392
05:00+10юв3384100 0.0 101049
08:00+13юв477476 0.0 1011400
11:00+20ююв456027 0.0 1010815
14:00+23юв445431 0.0 10101156
17:00+24юв556340 0.0 10101025
20:00+18юв497996 0.0 1010192
11 мая, вт
вт1123:00+14вюв469058 0.0 101091
02:00+13вюв4890100 0.0 1008221
05:00+12вюв35925 0.0 100778
08:00+15юв47755 0.0 1007507
11:00+20юв34583 0.0 1006903
14:00+24ююв45515 0.0 10051590
17:00+24ююв465812 0.0 10041351
20:00+18вюв497637 0.0 1003171
12 мая, ср
ср1223:00+16ююв227254 0.0 100334
02:00+15зюз7129295 0.0 1005547
05:00+14з4690100 0.0 1007625
08:00+13сз3393100 0.1 1008328
11:00+13сз3390100 0.1 1008421
14:00+15сз4484100 0.3 1007623
17:00+16ссз558192 0.2 1006661
20:00+13сз5894100 1.6 1005336
13 мая, чт
чт1323:00+12ссз3798100 1.7 1004341
02:00+11сз3699100 11.6 1002342
05:00+11юз2299100 5.9 1001201
08:00+11юз3397100 5.9 1001334
11:00+10юз4696100 1.6 1001344
14:00+11зюз4795100 4.4 1001460
17:00+10зюз5992100 3.1 1002593
20:00+9зюз61193100 4.3 1003580
14 мая, пт
пт1423:00+8зюз71294100 0.7 1004592
02:00+8зюз71294100 1.6 1004618
05:00+7зюз61193100 0.6 1005600
08:00+7зюз61092100 0.6 1007570
11:00+10з688090 0.0 10081014
14:00+11з5876100 0.1 10091111
17:00+12зсз577251 0.1 1009999
20:00+10ссз228623 0.1 101020